| time (UTC) | temp C | wind direction | speed KPH | gust KPH | rain 1hr cm | rain 24hr cm | rain mn cm | humidity % | barometer mb |
| 20260507224535 | 7 | 281 | 0.0 | 20.9 | 0.00 | 0.20 | 0.03 | 55 | 1005.7 |
| 20260507223032 | 7 | 291 | 0.0 | 0.0 | 0.00 | 0.20 | 0.03 | 54 | 1005.6 |
| 20260507221501 | 7 | 291 | 4.8 | 19.3 | 0.00 | 0.20 | 0.03 | 52 | 1005.5 |
| 20260507220002 | 7 | 322 | 1.6 | 32.2 | 0.00 | 0.28 | 0.03 | 52 | 1005.5 |
| 20260507214559 | 7 | 298 | 3.2 | 29.0 | 0.00 | 0.28 | 0.03 | 51 | 1005.5 |
| 20260507213101 | 7 | 298 | 0.0 | 24.1 | 0.00 | 0.28 | 0.03 | 51 | 1005.4 |
| 20260507211558 | 7 | 264 | 0.0 | 20.9 | 0.00 | 0.28 | 0.03 | 51 | 1005.3 |
| 20260507210059 | 7 | 304 | 4.8 | 27.4 | 0.00 | 0.41 | 0.03 | 51 | 1005.3 |
| 20260507204554 | 7 | 297 | 1.6 | 22.5 | 0.00 | 0.41 | 0.03 | 52 | 1005.2 |
| 20260507203054 | 7 | 286 | 6.4 | 24.1 | 0.00 | 0.41 | 0.03 | 53 | 1005.0 |
| 20260507201552 | 8 | 211 | 0.0 | 25.7 | 0.00 | 0.41 | 0.03 | 54 | 1005.0 |
| 20260507200051 | 8 | 295 | 0.0 | 19.3 | 0.00 | 0.48 | 0.03 | 53 | 1005.0 |
| 20260507194548 | 8 | 281 | 4.8 | 22.5 | 0.00 | 0.48 | 0.03 | 50 | 1005.1 |
| 20260507193048 | 8 | 309 | 3.2 | 33.8 | 0.00 | 0.48 | 0.03 | 52 | 1005.0 |
| 20260507191548 | 9 | 293 | 0.0 | 29.0 | 0.00 | 0.48 | 0.03 | 52 | 1005.0 |
| 20260507190147 | 8 | 290 | 1.6 | 14.5 | 0.00 | 0.58 | 0.03 | 54 | 1005.0 |
| 20260507184517 | 9 | 291 | 0.0 | 16.1 | 0.00 | 0.58 | 0.03 | 58 | 1004.9 |
| 20260507183015 | 9 | 302 | 6.4 | 17.7 | 0.00 | 0.58 | 0.03 | 54 | 1004.9 |
| 20260507181546 | 10 | 292 | 0.0 | 24.1 | 0.00 | 0.58 | 0.03 | 55 | 1005.0 |
| 20260507180050 | 10 | 303 | 0.0 | 24.1 | 0.00 | 0.81 | 0.03 | 54 | 1005.0 |
| 20260507174519 | 10 | 281 | 0.0 | 1.6 | 0.00 | 0.81 | 0.03 | 61 | 1005.0 |
| 20260507173013 | 9 | 223 | 0.0 | 1.6 | 0.00 | 0.81 | 0.03 | 57 | 1005.0 |
| 20260507171503 | 8 | 231 | 0.0 | 14.5 | 0.00 | 0.81 | 0.03 | 64 | 1005.2 |
| 20260507170004 | 8 | 218 | 0.0 | 20.9 | 0.00 | 1.09 | 0.03 | 63 | 1005.4 |
| 20260507164600 | 8 | 294 | 0.0 | 8.0 | 0.00 | 1.09 | 0.03 | 62 | 1005.4 |
| 20260507163058 | 7 | 236 | 0.0 | 11.3 | 0.00 | 1.09 | 0.03 | 68 | 1005.6 |
| 20260507161557 | 7 | 275 | 0.0 | 19.3 | 0.00 | 1.09 | 0.03 | 70 | 1005.8 |
| 20260507160053 | 7 | 261 | 0.0 | 17.7 | 0.00 | 1.27 | 0.03 | 70 | 1005.9 |
| 20260507154554 | 7 | 286 | 0.0 | 11.3 | 0.00 | 1.27 | 0.03 | 73 | 1006.0 |
| 20260507153102 | 6 | 240 | 0.0 | 19.3 | 0.00 | 1.27 | 0.03 | 73 | 1006.0 |
| 20260507151547 | 6 | 294 | 0.0 | 19.3 | 0.00 | 1.27 | 0.03 | 73 | 1005.9 |
| 20260507150043 | 7 | 309 | 3.2 | 22.5 | 0.00 | 1.37 | 0.03 | 72 | 1005.8 |
| 20260507144543 | 7 | 215 | 0.0 | 6.4 | 0.00 | 1.37 | 0.03 | 77 | 1005.7 |
| 20260507143036 | 6 | 245 | 0.0 | 4.8 | 0.00 | 1.37 | 0.03 | 81 | 1005.8 |
| 20260507141503 | 7 | 225 | 0.0 | 8.0 | 0.00 | 1.37 | 0.03 | 82 | 1005.9 |
| 20260507140103 | 6 | 223 | 0.0 | 0.0 | 0.00 | 1.55 | 0.03 | 87 | 1005.7 |
| 20260507134552 | 6 | 253 | 0.0 | 0.0 | 0.00 | 1.55 | 0.03 | 91 | 1005.9 |
| 20260507133049 | 5 | 301 | 0.0 | 0.0 | 0.00 | 1.55 | 0.03 | 94 | 1006.0 |
| 20260507131548 | 5 | 223 | 0.0 | 0.0 | 0.00 | 1.55 | 0.03 | 96 | 1006.1 |
| 20260507130058 | 4 | 221 | 0.0 | 0.0 | 0.00 | 1.78 | 0.03 | 96 | 1006.2 |
| 20260507124537 | 4 | 9 | 0.0 | 0.0 | 0.00 | 1.78 | 0.03 | 96 | 1006.1 |
| 20260507123034 | 4 | 9 | 0.0 | 0.0 | 0.00 | 1.78 | 0.03 | 96 | 1006.2 |
| 20260507121529 | 4 | 9 | 0.0 | 0.0 | 0.00 | 1.78 | 0.03 | 97 | 1006.2 |
| 20260507120028 | 4 | 9 | 0.0 | 0.0 | 0.00 | 1.83 | 0.03 | 97 | 1006.2 |
| 20260507114526 | 4 | 9 | 0.0 | 0.0 | 0.00 | 1.83 | 0.03 | 97 | 1006.1 |
| 20260507113026 | 3 | 9 | 0.0 | 0.0 | 0.00 | 1.83 | 0.03 | 97 | 1006.2 |
| 20260507111523 | 3 | 9 | 0.0 | 0.0 | 0.00 | 1.83 | 0.03 | 98 | 1006.1 |
| 20260507110023 | 3 | 9 | 0.0 | 0.0 | 0.00 | 1.85 | 0.03 | 98 | 1006.1 |
| 20260507104519 | 3 | 9 | 0.0 | 0.0 | 0.00 | 1.85 | 0.03 | 98 | 1006.2 |
| 20260507103016 | 3 | 9 | 0.0 | 0.0 | 0.00 | 1.85 | 0.03 | 98 | 1006.1 |
| 20260507101518 | 3 | 9 | 0.0 | 0.0 | 0.03 | 1.85 | 0.03 | 98 | 1006.1 |
| 20260507100016 | 2 | 9 | 0.0 | 0.0 | 0.03 | 1.88 | 0.03 | 98 | 1005.7 |
| 20260507094515 | 2 | 9 | 0.0 | 0.0 | 0.03 | 1.88 | 0.03 | 98 | 1005.8 |
| 20260507093014 | 2 | 9 | 0.0 | 0.0 | 0.03 | 1.88 | 0.03 | 97 | 1005.6 |
| 20260507091506 | 2 | 9 | 0.0 | 0.0 | 0.00 | 1.85 | 0.00 | 98 | 1005.4 |
| 20260507090004 | 3 | 9 | 0.0 | 0.0 | 0.00 | 1.93 | 0.00 | 97 | 1005.7 |
| 20260507084514 | 3 | 9 | 0.0 | 0.0 | 0.00 | 1.93 | 0.00 | 98 | 1006.1 |
| 20260507083100 | 3 | 9 | 0.0 | 0.0 | 0.00 | 1.93 | 0.00 | 98 | 1006.0 |
| 20260507081600 | 3 | 9 | 0.0 | 0.0 | 0.00 | 1.93 | 0.00 | 98 | 1005.9 |
| 20260507080058 | 3 | 9 | 0.0 | 0.0 | 0.00 | 1.93 | 0.00 | 98 | 1005.8 |
| 20260507074605 | 3 | 9 | 0.0 | 0.0 | 0.00 | 1.93 | 0.00 | 98 | 1006.0 |
| 20260507073055 | 3 | 9 | 0.0 | 0.0 | 0.00 | 1.93 | 0.00 | 98 | 1005.8 |
| 20260507071604 | 3 | 9 | 0.0 | 0.0 | 0.00 | 1.93 | 0.00 | 98 | 1005.6 |
| 20260507070105 | 3 | 9 | 0.0 | 0.0 | 0.00 | 2.01 | 0.00 | 97 | 1005.7 |
| 20260507064556 | 3 | 9 | 0.0 | 0.0 | 0.00 | 2.01 | 0.00 | 97 | 1005.7 |
| 20260507063049 | 3 | 9 | 0.0 | 0.0 | 0.00 | 2.01 | 0.00 | 98 | 1005.9 |
| 20260507061549 | 3 | 9 | 0.0 | 0.0 | 0.00 | 2.01 | 0.00 | 97 | 1005.7 |
| 20260507060047 | 3 | 9 | 0.0 | 0.0 | 0.00 | 2.18 | 0.00 | 97 | 1005.7 |
| 20260507054605 | 3 | 9 | 0.0 | 0.0 | 0.00 | 2.18 | 0.00 | 97 | 1005.8 |
| 20260507053038 | 3 | 9 | 0.0 | 0.0 | 0.00 | 2.18 | 0.00 | 97 | 1006.3 |
| 20260507051546 | 3 | 9 | 0.0 | 0.0 | 0.00 | 2.18 | 0.00 | 97 | 1006.3 |
| 20260507050046 | 3 | 9 | 0.0 | 0.0 | 0.00 | 2.29 | 2.18 | 97 | 1006.4 |
| 20260507044636 | 3 | 9 | 0.0 | 0.0 | 0.00 | 2.29 | 2.18 | 98 | 1006.4 |
| 20260507043004 | 4 | 9 | 0.0 | 0.0 | 0.00 | 2.29 | 2.18 | 97 | 1006.6 |
| 20260507041510 | 4 | 9 | 0.0 | 0.0 | 0.00 | 2.29 | 2.18 | 97 | 1006.7 |
| 20260507040059 | 4 | 9 | 0.0 | 0.0 | 0.00 | 2.41 | 2.18 | 97 | 1006.5 |
| 20260507034608 | 5 | 9 | 0.0 | 0.0 | 0.00 | 2.41 | 2.18 | 98 | 1006.6 |
| 20260507033058 | 5 | 9 | 0.0 | 0.0 | 0.00 | 2.41 | 2.18 | 98 | 1006.9 |
| 20260507031600 | 5 | 9 | 0.0 | 0.0 | 0.00 | 2.41 | 2.18 | 98 | 1006.8 |
| 20260507030058 | 5 | 9 | 0.0 | 0.0 | 0.00 | 2.46 | 2.18 | 98 | 1006.4 |
| 20260507024556 | 5 | 9 | 0.0 | 0.0 | 0.03 | 2.46 | 2.18 | 98 | 1006.5 |
| 20260507023053 | 5 | 9 | 0.0 | 0.0 | 0.05 | 2.46 | 2.18 | 97 | 1006.5 |
| 20260507021613 | 5 | 9 | 0.0 | 0.0 | 0.08 | 2.46 | 2.18 | 98 | 1007.0 |
| 20260507020108 | 5 | 9 | 0.0 | 0.0 | 0.10 | 2.46 | 2.18 | 98 | 1006.9 |
| 20260507014617 | 5 | 9 | 0.0 | 0.0 | 0.08 | 2.44 | 2.16 | 98 | 1006.8 |
| 20260507013052 | 5 | 9 | 0.0 | 0.0 | 0.08 | 2.41 | 2.13 | 98 | 1006.8 |
| 20260507011557 | 5 | 9 | 0.0 | 0.0 | 0.05 | 2.39 | 2.11 | 98 | 1006.7 |
| 20260507010047 | 5 | 9 | 0.0 | 0.0 | 0.05 | 2.36 | 2.08 | 98 | 1006.3 |
| 20260507004545 | 5 | 9 | 0.0 | 0.0 | 0.05 | 2.36 | 2.08 | 97 | 1006.0 |
| 20260507003044 | 5 | 9 | 0.0 | 0.0 | 0.03 | 2.34 | 2.06 | 97 | 1005.8 |
| 20260507001558 | 5 | 9 | 0.0 | 0.0 | 0.03 | 2.31 | 2.03 | 97 | 1005.6 |
| 20260507000018 | 5 | 9 | 0.0 | 0.0 | 0.03 | 2.31 | 2.03 | 97 | 1005.3 |
| 20260506234513 | 5 | 9 | 0.0 | 0.0 | 0.03 | 2.31 | 2.03 | 97 | 1005.3 |
| 20260506233009 | 5 | 9 | 1.6 | 12.9 | 0.00 | 2.29 | 2.01 | 97 | 1005.2 |
| 20260506231508 | 5 | 9 | 0.0 | 0.0 | 0.00 | 2.29 | 2.01 | 97 | 1005.4 |
| 20260506230007 | 5 | 9 | 0.0 | 3.2 | 0.00 | 2.29 | 2.01 | 97 | 1005.2 |